Simultaneous Nadir Overpasses (SNOs) Predictions

Prediction of SNOs between LANDSAT-8 and NOAA-19 Satellite Orbit:

Table of predicted SNOs for the next 14.0 days since TLE Epoch: 11/30/2024
Index Date (LANDSAT-8) Time (LANDSAT-8) Lat,Lon (LANDSAT-8) SZA (LANDSAT-8 ) Date (NOAA-19) Time (NOAA-19) Lat,Lon (NOAA-19) SZA (NOAA-19 ) Distance(km) Time Diff (sec)
1 12/01/2024 21:57:21 80.23,-119.81 103.58 12/01/2024 21:57:31 80.22,-119.88 103.57 1.53 10
2 12/04/2024 04:20:32 80.16, 143.78 103.76 12/04/2024 04:20:01 80.15, 143.65 103.74 2.42 31
3 12/04/2024 05:09:56 -80.26, -47.66 76.07 12/04/2024 05:10:50 -80.26, -47.59 76.05 1.31 54
4 12/06/2024 10:43:41 80.12, 47.72 103.97 12/06/2024 10:42:29 80.12, 47.71 103.94 0.45 72
5 12/06/2024 11:33:06 -80.20,-144.01 75.92 12/06/2024 11:33:20 -80.19,-144.13 75.93 2.29 14
6 12/08/2024 17:56:15 -80.14, 119.69 75.79 12/08/2024 17:55:49 -80.13, 119.57 75.82 2.43 26
7 12/08/2024 18:45:38 80.23, -71.82 104.37 12/08/2024 18:46:48 80.23, -71.90 104.38 1.59 70
8 12/11/2024 00:19:23 -80.08, 23.45 75.70 12/11/2024 00:18:17 -80.09, 23.48 75.71 1.01 66
9 12/11/2024 01:08:46 80.18,-168.09 104.46 12/11/2024 01:09:16 80.18,-168.10 104.47 0.48 30



Historial Predications of SNOs between LANDSAT-8 and NOAA-19
